Location: Newark
(51.0089°N, 21.5817°E)
Time: 01:29:00
(UTC+00:00)

XW-2F - Pass Details

Date: 01 March 2020
Orbit: 503 x 521 km, 97.5° (Epoch: 06 April)

Event Time Altitude Azimuth Distance (km) Brightness Sun altitude
Rises 04:24:03 0° 18° (NNE) 2,642 ? -9.2°
Reaches altitude 10° 04:26:14 10° 25° (NNE) 1,753 ? -8.9°
Maximum altitude 04:29:51 44° 99° (E) 729 ? -8.3°
Drops below altitude 10° 04:33:29 10° 172° (S) 1,748 ? -7.7°
Sets 04:35:38 0° 179° (S) 2,633 ? -7.4°
